Simultaneous Nadir Overpasses (SNOs) Predictions

Prediction of SNOs between GOES-17 and TERRA Satellite Orbit:

Table of predicted SNOs for the next 14.0 days since TLE Epoch: 5/7/2022
Index Date Time (GOES-17) GOES-17 Lat,Lon TERRA Lat,Lon Distance(km) Time Diff (sec)
1 05/08/2022 19:24:03 0.04,-137.19 -0.29,-135.69 170.26 80
2 05/09/2022 07:42:45 -0.04,-137.19 -0.83,-140.88 419.73 80
3 05/11/2022 07:30:29 -0.04,-137.19 -0.21,-137.92 83.76 80
4 05/13/2022 07:20:53 -0.04,-137.18 0.42,-134.96 251.86 80
5 05/13/2022 19:39:28 0.03,-137.17 0.63,-140.13 335.58 80
6 05/15/2022 19:27:11 0.03,-137.15 0.05,-137.16 2.12 80
7 05/17/2022 19:17:35 0.03,-137.12 -0.60,-134.20 332.48 80
8 05/18/2022 07:36:18 -0.02,-137.12 -0.50,-139.39 258.25 80
9 05/20/2022 07:26:41 -0.02,-137.08 0.11,-136.43 74.20 80
